Regional Weather Roundup
Issued by NWS Upton, NY

Current Version | Previous Version | Text Only | Print | Product List | Glossary On
Versions: 1 2 3 4 5 6 7 8 9 10 11 12 13 14 15 16 17 18 19 20 21 22 23 24 25 26 27
000
ASUS41 KOKX 231909
RWROKX

REGIONAL WEATHER ROUNDUP
NATIONAL WEATHER SERVICE NEW YORK NY
300 PM EDT TUE MAY 23 2017

NOTE: "FAIR" INDICATES FEW OR NO CLOUDS BELOW 12,000 FEET WITH NO
SIGNIFICANT WEATHER AND/OR OBSTRUCTIONS TO VISIBILITY.

NYZ071-072-176-178-NJZ106-104-232000-
NEW YORK CITY METRO AREA

CITY           SKY/WX    TMP DP  RH WIND       PRES   REMARKS
Central Park   PTSUNNY   68  47  46 CALM      29.91F
Wall St Helipt MOCLDY    69  46  43 VRB6      29.90F
Bronx Bot Gard   N/A     68  48  49 CALM      29.89F
LaGuardia APRT CLOUDY    69  47  45 CALM      29.89F
Kennedy INTL   CLOUDY    69  49  48 CALM      29.90F
Breezy Point     N/A     63 N/A N/A S6          N/A
Newark/Liberty CLOUDY    69  46  43 NE5       29.88F
Teterboro      PTSUNNY   69  46  43 VRB3      29.87F
$$

NYZ177-179-078>081-232000-
LONG ISLAND NEW YORK

CITY           SKY/WX    TMP DP  RH WIND       PRES   REMARKS
Jones Beach      N/A     63 N/A N/A S6          N/A
Matinecock PT  NOT AVBL
Farmingdale    CLOUDY    67  49  52 E5        29.88F
MacArthur/ISP  CLOUDY    68  47  46 CALM      29.88F
Shirley        PTSUNNY   69  51  52 N5        29.89F
Mt Sinai Harb    N/A     68 N/A N/A CALM        N/A
Westhampton    CLOUDY    69  47  45 N5        29.89F
East Hampton     N/A     67  48  50 NE7       29.87F
Montauk          N/A     65  56  72 S5        29.88F
$$

NYZ052-065-067-232000-
HUDSON VALLEY

CITY           SKY/WX    TMP DP  RH WIND       PRES   REMARKS
White Plains   CLOUDY    67  50  54 NW7       29.88F
Larchmont Harb   N/A     63 N/A N/A S12         N/A
Croton O-T Hud   N/A     64 N/A N/A W8          N/A
Newburgh       PTSUNNY   64  54  68 CALM      29.91F
Montgomery     CLOUDY    67  48  50 CALM      29.89F
Poughkeepsie   CLOUDY    66  47  50 N5        29.88F
Albany         CLOUDY    69  46  43 NE5       29.87F
$$

NJZ001-105-106-008-010-013-015-019>022-104-232000-
NEW JERSEY

CITY           SKY/WX    TMP DP  RH WIND       PRES   REMARKS
Newark/Liberty CLOUDY    69  46  43 NE5       29.88F
Teterboro      PTSUNNY   69  46  43 VRB3      29.87F
Caldwell       CLOUDY    70  49  47 VRB3      29.89F
Somerville     CLOUDY    68  53  58 CALM      29.87F
Linden           N/A     68  43  39 SE5       29.89F
Perth Amboy      N/A     64 N/A N/A SE7         N/A
Sussex         CLOUDY    66  49  54 CALM      29.90F
Andover          N/A     67  49  52 CALM      29.90F
Trenton        CLOUDY    65  53  65 CALM      29.89F
Millville      CLOUDY    66  59  78 NE8       29.89F
Atlantic City  CLOUDY    66  48  52 E10       29.90F
Wrightstown    PTSUNNY   65  50  57 NE3       29.89F
Toms River     CLOUDY    66  45  46 E6        29.91F
Belmar         CLOUDY    65  46  50 E5        29.91F
$$

PAZ047>061-062-071-232000-
EASTERN PENNSYLVANIA

CITY           SKY/WX    TMP DP  RH WIND       PRES   REMARKS
Philadelphia   CLOUDY    66  52  60 E7        29.89F
Allentown      CLOUDY    68  48  48 E6        29.90F
Scranton       CLOUDY    68  49  50 N3        29.89F
$$

CTZ002-004>006-009-010-012-RIZ004-006-007-MAZ004-011-015-232000-
SOUTHERN NEW ENGLAND
 IN CT

CITY           SKY/WX    TMP DP  RH WIND       PRES   REMARKS
Bradley INTL   CLOUDY    69  49  48 CALM      29.87F
Hartford       MOSUNNY   69  49  48 CALM      29.87F
Danbury        MOSUNNY   67  50  54 N3        29.89F
Wtrbury/Oxford CLOUDY    66  46  48 CALM      29.89F
Bridgeport     CLOUDY    66  49  54 SW12      29.88F
Meriden        MOSUNNY   69  50  50 NE3       29.87F
New Haven      CLOUDY    64  50  60 SW7       29.88S
Chester          N/A     68  50  52 NW6       29.88S
Groton         CLOUDY    67  55  65 S9        29.85F
Wilimantic     CLOUDY    72  49  44 VRB3      29.86F

 IN RI

CITY           SKY/WX    TMP DP  RH WIND       PRES   REMARKS
Providence     CLOUDY    72  47  40 NE6       29.85F
Block Island   CLOUDY    67  51  56 E6        29.87F
Westerly       CLOUDY    66  54  65 S8        29.86F
 IN MA

CITY           SKY/WX    TMP DP  RH WIND       PRES   REMARKS
Boston         CLOUDY    62  52  69 E8        29.85F
Worcester      CLOUDY    64  42  44 NW10      29.87F
Westfield      CLOUDY    68  50  52 NW5       29.87F
Provincetown   CLOUDY    55  51  86 NE9       29.86F
Nantucket      MOSUNNY   61  53  75 N13       29.85R
$$

ANZ330-335-338-340-345-350-353-355-232000-
COASTAL MARINE OBSERVATIONS


STATION/POSITION TIME  SKY/WX   TEMP    WIND        PRES    VSBY  WAVE
                                AIR SEA DIR/SP/G                  HT/PER
                 (UTC)          (F)     (DEG/KT/KT) (MB)    (MI)  (FT/S)
NY HARB ENTRANCE 1750            60 59  220/  4/  4 1013.2          3/ 7
20 S FIRE ISLAND 1850            58 56  250/  2/  4 1012.0          4/ 7
GREAT SOUTH BAY  1830            67 65   CALM  /  4   N/A
23 SSW MONTAUK P 1750            58 55              1012.5          3/ 7
15 E BARNEGAT LI 1830               58                N/A           4/ 7
HUDSON CANYON    1750            55 55  350/  6/  6 1012.8          4/ 8
KINGS POINT      1842            66 59  220/  2/  2 1012.1
EXECUTION ROCKS  1845            65                   N/A
CENTRAL LI SOUND 1830            60     240/  6/  8   N/A           0
EASTERN LI SOUND NOT AVBL
ROBBINS REEF     1842            65      80/  2/  2 1012.9
$$


>>>>>>>>>>>>>>>>>>>>>>>>>>>> KEY <<<<<<<<<<<<<<<<<<<<<<<<<<<
>                                                          <
>     SKY/WX - Sky Condition/Present Weather               <
>     TMP    - Temperature in Fahrenheit                   <
>     DP     - Dew Point in Fahrenheit                     <
>     RH     - Relative Humidity in Percent                <
>     WIND   - Direction (from) and Speed in MPH           <
>     PRES   - Mean Sea Level Pressure (inches of Hg)      <
>     WCI    - Wind Chill Index                            <
>     VSB    - VISIBILITY IN MILES                         <
>     HX     - HEAT INDEX                                  <
>     TC     - TEMPERATURE IN CELSIUS                      <
>     VRB    - VARIABLE WIND DIRECTION                     <
>                                                          <
>>>>>>>>>>>>>>>>>>>>>>>>>>>> KEY <<<<<<<<<<<<<<<<<<<<<<<<<<<




USA.gov is the U.S. government's official web portal to all federal, state and local government web resources and services.